CZ-6A DEB, 54904

Orbit data source: Space-Track

CZ-6A DEB, 54904 is space debris in SSO originally from a launch on Fri, 11 Nov 2022 UTC launched from the Taiyaun Space Center, China (TSC). Debris objects in space refer to the collection of defunct objects orbiting the Earth. Examples of debris include non-operational satellites, rocket bodies, and fragments generated from explosions, collisions, or faulty payload assembly.

Loading next visibility...
Identifier
54904, 2022-151QR
Orbit
SSO
Country
Flag of CNCN / PRC
Related business
Manufacturer
SAST
Mission
Spacecraft
Bus & Motor
Unknown
Mass
Unknown
Launch date (UTC)
2022-11-11 (3 years ago)
Launch vehicle
Unknown
Launch site
Taiyaun Space Center, China (TSC)
Object type
Payload
Rocket body
Debris
Shape & HBR
Unknown shape, 0.1 m
Radar Cross Section
Small (<0.1 m²)

Expand to show TLE details & history
Last TLE update: 3 days ago

TLE from 3 days ago
0 CZ-6A DEB
1 54904U 22151QR  25348.26219620  .00010360  00000-0  24375-2 0  9996
2 54904  99.0580  82.1205 0087465 229.5285 129.8261 14.52228103161898
Epoch: 2025-12-14T06:17Z
TLE epoch observation values (Epoch: 2025-12-14T06:17:33.751Z)
Latitude
0.00001°
Longitude
-95.44777°
Altitude
761.406 km
Speed
7.453 km/s
True Right ascension
05h 28m 28s
True Declination
0° 00' 00"
Sunlit
Object was in full shadow at epoch
Visualization orbit readout
Latitude
Unknown
Longitude
Unknown
Altitude
Unknown
Speed
Unknown
Apparent Right ascension
Unknown
Apparent Declination
Unknown
Sunlit
N/A
Visualization observer readout
Local Sidereal Time
19:41:23
Azimuth
Unknown
Elevation
Unknown
Doppler factor
Unknown
Orbital elements
Apogee altitude
777.558 km
Perigee altitude
653.469 km
Semi-major axis
7,093.65 km
Eccentricity
0.00875
Inclination
99.058°
RAAN
82.1205°
Arg. of periapsis
229.5285°
True anomaly
130.59046°
Mean anomaly
129.8261°
Eccentric anomaly
130.20882°
Mean motion
3.63278 °/min
Orbital period
99.1 mins
BSTAR
0.0024375
Loading maneuver chart data...
Computing Atmospheric mass density...
Loading historical data...
Loading historical data...
Loading historical data...
Loading historical data...
Loading historical data...
Loading historical data...
Loading historical data...

Documentation

Showing up to 5 results
|